(293430) = 1996 EL12 = 2007 EH142

Discovered at Kitt Peak on 2007-03-12 by Spacewatch.

Orbit

Orbit type: Main Belt

Note: WebGL enabled browser required.

epoch2023-02-25.0
epoch JD2460000.5
perihelion date2022-04-24.75673
perihelion JD2459694.25673
argument of perihelion (°)278.42375
ascending node (°)200.93435
inclination (°)8.61009
eccentricity0.0692563
perihelion distance (AU)2.8388093
Tisserand w.r.t. Jupiter3.2
ΔV w.r.t. Earth (km/sec)10.8
semimajor axis (AU)3.0500441
mean anomaly (°)56.66452
mean daily motion (°/day)0.18503110
aphelion distance (AU)3.261
period (years)5.33
P-vector [x]-0.48628320
P-vector [y]0.84900750
P-vector [z]0.20667589
Q-vector [x]-0.87216247
Q-vector [y]-0.45711977
Q-vector [z]-0.17428176
absolute magnitude16.52
phase slope0.15
uncertainty0
referenceMPO 745323
observations used209
oppositions14
arc length (days)9923
first opposition used1996
last opposition used2023
residual rms (arc-secs)0.74
perturbers coarse indicatorM-v
perturbers precise indicator003Ek
first observation date used1996-03-13.0
last observation date used2023-05-14.0
computer nameMPCLINUX
JD of orbit computation2456847.674223
perihelion JD uncertainty (days)3.1691E-04
argument of perihelion uncertainty (°)7.1469E-05
ascending node uncertainty (°)3.9012E-05
inclination uncertainty (°)7.2063E-06
eccentricity uncertainty 5.4785E-08
perihelion distance uncertainty (AU)1.7418E-07
Minimum Orbit Intersection Distances (in AU)
for orbit epoch: 2460000.5, reference: E2023-JF5
Mercury2.51952
Venus2.13719
Earth1.87079
Mars1.24162
Jupiter1.83659
Saturn6.19071
Uranus15.5302
Neptune26.7561

Observations

214 total observations over interval: 1996 03 13.26703 – 2023 05 14.295635
These data are available for download (format description).

Date (UT) J2000 RA J2000 Dec Magn Location Ref
1996 03 13.26703 10 21 03.97 +01 25 57.0   691 – Steward Observatory, Kitt Peak-Spacewatch MPC 27041
1996 03 13.28817 10 21 03.17 +01 26 06.1   691 – Steward Observatory, Kitt Peak-Spacewatch MPC 27041
1996 03 13.30912 10 21 02.34 +01 26 14.6 20.5 V 691 – Steward Observatory, Kitt Peak-Spacewatch MPC 27041
1996 03 19.16061 10 17 36.89 +02 06 45.8 20.3 V 691 – Steward Observatory, Kitt Peak-Spacewatch MPC 27041
1996 03 19.18152 10 17 36.20 +02 06 54.4   691 – Steward Observatory, Kitt Peak-Spacewatch MPC 27041
1996 03 19.20685 10 17 35.31 +02 07 04.7   691 – Steward Observatory, Kitt Peak-Spacewatch MPC 27041
2002 04 09.22541 14 33 19.32 -12 22 33.7 19.4 R 807 – Cerro Tololo Observatory, La Serena MPS 208159
2002 04 09.28892 14 33 16.87 -12 22 11.6   807 – Cerro Tololo Observatory, La Serena MPS 208159
2007 03 12.30812 12 41 05.99 -08 12 35.0 21.2 V 691 – Steward Observatory, Kitt Peak-Spacewatch MPS 204770
2007 03 12.32579 12 41 05.29 -08 12 28.8 21.0 V 691 – Steward Observatory, Kitt Peak-Spacewatch MPS 204770
2007 03 12.34346 12 41 04.62 -08 12 22.3 21.5 V 691 – Steward Observatory, Kitt Peak-Spacewatch MPS 204770
2007 03 16.25394 12 38 38.15 -07 48 27.4 20.9 V 691 – Steward Observatory, Kitt Peak-Spacewatch MPS 204770
2007 03 16.27165 12 38 37.45 -07 48 20.6 20.9 V 691 – Steward Observatory, Kitt Peak-Spacewatch MPS 204770
2007 03 16.28935 12 38 36.71 -07 48 13.4 20.2 V 691 – Steward Observatory, Kitt Peak-Spacewatch MPS 204770
2007 04 16.24340 12 17 42.43 -04 09 53.5 20.6 V G96 – Mt. Lemmon Survey MPS 208159
2007 04 16.25207 12 17 42.07 -04 09 49.6 20.7 V G96 – Mt. Lemmon Survey MPS 208159
2007 04 16.26076 12 17 41.74 -04 09 46.2 20.7 V G96 – Mt. Lemmon Survey MPS 208159
2007 04 16.26944 12 17 41.46 -04 09 42.6 20.6 V G96 – Mt. Lemmon Survey MPS 208159
2007 04 19.21611 12 16 02.74 -03 50 11.1 21.4 V G96 – Mt. Lemmon Survey MPS 208159
2007 04 19.22337 12 16 02.49 -03 50 08.0 20.7 V G96 – Mt. Lemmon Survey MPS 208159
2007 04 19.23059 12 16 02.28 -03 50 05.2 20.7 V G96 – Mt. Lemmon Survey MPS 208159
2007 04 19.23777 12 16 02.06 -03 50 02.5 21.0 V G96 – Mt. Lemmon Survey MPS 208159
2009 08 17.23107 22 46 26.46 +01 27 35.0 21.6 V 691 – Steward Observatory, Kitt Peak-Spacewatch MPS 291783
2009 08 17.24869 22 46 25.72 +01 27 30.4 21.0 V 691 – Steward Observatory, Kitt Peak-Spacewatch MPS 291783
2009 08 17.26631 22 46 25.07 +01 27 25.9 20.8 V 691 – Steward Observatory, Kitt Peak-Spacewatch MPS 291783
2009 08 20.19228 22 44 31.73 +01 13 45.6   691 – Steward Observatory, Kitt Peak-Spacewatch MPS 291783
2009 08 20.21041 22 44 30.97 +01 13 40.9   691 – Steward Observatory, Kitt Peak-Spacewatch MPS 291783
2009 08 20.22856 22 44 30.26 +01 13 35.9   691 – Steward Observatory, Kitt Peak-Spacewatch MPS 291783
2010 10 11.493178 04 31 05.555 +15 38 54.40 21.89 w F51 – Pan-STARRS 1, Haleakala MPS 365684
2010 10 11.507609 04 31 05.461 +15 38 50.97 21.72 w F51 – Pan-STARRS 1, Haleakala MPS 365684
2010 10 11.521607 04 31 05.359 +15 38 47.49 21.90 w F51 – Pan-STARRS 1, Haleakala MPS 365684
2010 11 06.36874 04 20 49.81 +13 39 21.8 20.0 V G96 – Mt. Lemmon Survey MPS 355466
2010 11 06.37816 04 20 49.45 +13 39 18.9 20.2 V G96 – Mt. Lemmon Survey MPS 355466
2010 11 06.38768 04 20 49.09 +13 39 16.0 20.0 V G96 – Mt. Lemmon Survey MPS 355466
2010 11 06.39719 04 20 48.66 +13 39 13.3 19.9 V G96 – Mt. Lemmon Survey MPS 355467
2010 11 09.534517 04 18 38.652 +13 23 35.84 21.91 w F51 – Pan-STARRS 1, Haleakala MPS 365684
2010 11 09.552746 04 18 37.838 +13 23 30.36 22.01 w F51 – Pan-STARRS 1, Haleakala MPS 365684
2010 11 09.570959 04 18 37.024 +13 23 24.82 21.84 w F51 – Pan-STARRS 1, Haleakala MPS 365684
2010 11 09.589126 04 18 36.225 +13 23 19.31 22.02 w F51 – Pan-STARRS 1, Haleakala MPS 365684
2010 11 17.527366 04 12 33.384 +12 44 21.47 21.75 i F51 – Pan-STARRS 1, Haleakala MPS 365684
2010 11 17.538933 04 12 32.790 +12 44 18.02 21.84 i F51 – Pan-STARRS 1, Haleakala MPS 365684
2012 02 13.22457 10 37 11.73 -01 15 09.7 20.2 V 691 – Steward Observatory, Kitt Peak-Spacewatch MPS 412913
2012 02 13.24495 10 37 10.89 -01 15 04.2 20.6 V 691 – Steward Observatory, Kitt Peak-Spacewatch MPS 412913
2012 02 13.26979 10 37 09.85 -01 14 56.8 20.6 V 691 – Steward Observatory, Kitt Peak-Spacewatch MPS 412913
2012 03 02.29760 10 24 06.04 +00 33 15.5 20.4 V G96 – Mt. Lemmon Survey MPS 416060
2012 03 02.30426 10 24 05.76 +00 33 18.5 20.3 V G96 – Mt. Lemmon Survey MPS 416060
2012 03 02.31095 10 24 05.47 +00 33 21.1 20.1 V G96 – Mt. Lemmon Survey MPS 416060
2012 03 02.31772 10 24 05.14 +00 33 24.0 20.1 V G96 – Mt. Lemmon Survey MPS 416060
2012 03 16.31284 10 14 50.093 +02 10 25.04 21.1 w F51 – Pan-STARRS 1, Haleakala MPS 418362
2012 03 16.32713 10 14 49.577 +02 10 31.03 21.2 w F51 – Pan-STARRS 1, Haleakala MPS 418362
2012 03 16.34145 10 14 49.058 +02 10 36.83 21.0 w F51 – Pan-STARRS 1, Haleakala MPS 418362
2012 03 16.35576 10 14 48.551 +02 10 42.91 21.1 w F51 – Pan-STARRS 1, Haleakala MPS 418362
2012 03 19.33100 10 13 10.507 +02 30 55.23 21.1 w F51 – Pan-STARRS 1, Haleakala MPS 418362
2012 03 19.34497 10 13 10.048 +02 31 00.82 21.1 w F51 – Pan-STARRS 1, Haleakala MPS 418362
2012 03 19.35894 10 13 09.584 +02 31 06.46 21.0 w F51 – Pan-STARRS 1, Haleakala MPS 418362
2012 03 19.37292 10 13 09.113 +02 31 12.09 21.1 w F51 – Pan-STARRS 1, Haleakala MPS 418362
2013 06 04.39767 16 00 16.095 -11 43 52.74 21.0 w F51 – Pan-STARRS 1, Haleakala MPS 469808
2013 06 04.41231 16 00 15.410 -11 43 50.04 20.8 w F51 – Pan-STARRS 1, Haleakala MPS 469808
2013 06 04.42694 16 00 14.743 -11 43 47.23 20.8 w F51 – Pan-STARRS 1, Haleakala MPS 469808
2014 07 01.55516 21 25 10.269 -03 41 57.75 21.5 w F51 – Pan-STARRS 1, Haleakala MPS 522721
2014 07 01.56727 21 25 09.989 -03 41 57.48 21.5 w F51 – Pan-STARRS 1, Haleakala MPS 522721
2014 07 01.57938 21 25 09.743 -03 41 57.31 21.5 w F51 – Pan-STARRS 1, Haleakala MPS 522721
2014 07 01.59149 21 25 09.474 -03 41 57.06 21.5 w F51 – Pan-STARRS 1, Haleakala MPS 522721
2015 10 03.41908 02 23 36.25 +12 30 09.4 20.9 V G96 – Mt. Lemmon Survey MPS 630836
2015 10 03.42419 02 23 36.04 +12 30 06.5 20.7 V G96 – Mt. Lemmon Survey MPS 630836
2015 10 03.42930 02 23 35.92 +12 30 06.4 21.6 V G96 – Mt. Lemmon Survey MPS 630836
2015 10 03.43441 02 23 35.73 +12 30 04.9 20.6 V G96 – Mt. Lemmon Survey MPS 630836
2015 10 13.22259 02 17 43.10 +11 32 28.1   691 – Steward Observatory, Kitt Peak-Spacewatch MPS 635045
2015 10 13.24143 02 17 42.37 +11 32 21.0   691 – Steward Observatory, Kitt Peak-Spacewatch MPS 635045
2015 10 13.27653 02 17 40.74 +11 32 07.9   691 – Steward Observatory, Kitt Peak-Spacewatch MPS 635045
2016 11 12.60140 08 41 53.934 +08 07 21.70 21.2 i F51 – Pan-STARRS 1, Haleakala MPS 747027
2016 11 12.61343 08 41 54.313 +08 07 17.74 21.1 i F51 – Pan-STARRS 1, Haleakala MPS 747027
2016 12 23.56054 08 45 31.208 +05 36 56.54 20.8 w F51 – Pan-STARRS 1, Haleakala MPS 755595
2016 12 23.57383 08 45 30.880 +05 36 55.63 20.8 w F51 – Pan-STARRS 1, Haleakala MPS 755595
2016 12 23.58714 08 45 30.546 +05 36 54.81 20.9 w F51 – Pan-STARRS 1, Haleakala MPS 755595
2016 12 23.60044 08 45 30.212 +05 36 53.58 20.8 w F51 – Pan-STARRS 1, Haleakala MPS 755595
2017 01 04.42846 08 39 24.128 +05 33 25.61 20.5 w F51 – Pan-STARRS 1, Haleakala MPS 757369
2017 01 04.44139 08 39 23.612 +05 33 26.14 20.5 w F51 – Pan-STARRS 1, Haleakala MPS 757369
2017 01 04.45435 08 39 23.102 +05 33 26.60 20.4 w F51 – Pan-STARRS 1, Haleakala MPS 757369
2017 01 04.46734 08 39 22.588 +05 33 27.06 20.6 w F51 – Pan-STARRS 1, Haleakala MPS 757369
2017 01 20.46170 08 27 35.333 +06 03 10.84 20.4 w F51 – Pan-STARRS 1, Haleakala MPS 761778
2017 01 20.48764 08 27 34.027 +06 03 15.54 20.2 w F51 – Pan-STARRS 1, Haleakala MPS 761778
2017 01 20.50011 08 27 33.398 +06 03 17.71 20.4 w F51 – Pan-STARRS 1, Haleakala MPS 761778
2017 01 28.32788 08 21 10.02 +06 30 34.2 20.5 V G96 – Mt. Lemmon Survey MPS 765392
2017 01 28.33820 08 21 09.51 +06 30 35.1 19.6 V G96 – Mt. Lemmon Survey MPS 765392
2017 01 28.34251 08 21 09.39 +06 30 35.9 19.6 V G96 – Mt. Lemmon Survey MPS 765392
2017 01 29.29111 08 20 23.19 +06 34 24.9 20.2 G G45 – Space Surveillance Telescope, Atom Site MPS 1609068
